Location: Gera-Langenberg
(50.9216°N, 12.0571°E)
Time: 05:32:45
(UTC+00:00)

Daily predictions for brighter satellites

Satellite Brightness Start Highest point End
(mag) Time Altitude Azimuth Time Altitude Azimuth Time Altitude Azimuth
STARLINK-1311 4.3 00:02:53 22° SE 00:02:53 22° SE 00:04:49 10° E
STARLINK-1390 3.9 00:00:36 10° W 00:04:35 66° N 00:08:36 10° ENE
Cosmos 2084 Rocket 3.5 00:00:10 10° NW 00:04:38 69° SW 00:08:10 16° SSE
Cosmos 2322 Rocket 4.4 00:04:12 10° SE 00:06:51 14° E 00:09:29 10° ENE
STARLINK-1365 3.9 00:04:31 10° W 00:08:33 65° N 00:12:35 10° ENE
Cosmos 1898 Rocket 4.2 00:04:09 10° NW 00:09:04 39° WSW 00:11:42 24° SSW
STARLINK-41 3.8 00:09:05 30° SSE 00:09:08 30° SE 00:11:54 10° E
ERBS 3.4 00:06:22 10° WNW 00:08:52 27° WSW 00:08:52 27° WSW
USA 229 DEB 4.2 00:02:53 10° NW 00:10:03 69° NE 00:17:35 10° SE
USA 229 4.2 00:03:00 10° NW 00:10:09 69° NE 00:17:41 10° SE
STARLINK-1207 4.4 00:10:22 26° SSE 00:10:57 27° SE 00:14:07 10° E
NOSS 3-1 (C) 4.2 00:04:15 10° NW 00:11:30 75° NE 00:19:58 10° SE
Cosmos 1400 Rocket 3.4 00:08:07 10° N 00:12:13 56° ENE 00:15:19 16° SSE
Cosmos 2278 3.9 00:09:40 23° S 00:13:09 63° ESE 00:18:45 10° NE
ATLAS CENTAUR R/B 3.1 00:11:35 10° W 00:12:31 17° WSW 00:12:31 17° WSW
STARLINK-1266 4.4 00:13:28 26° SSE 00:14:09 28° SE 00:17:23 10° E
Cosmos 1697 Rocket 2.7 00:10:39 22° SSW 00:14:24 90° WNW 00:20:07 10° NNE
STARLINK-1284 4.3 00:16:34 27° SSE 00:17:22 30° SE 00:20:38 10° E
Cosmos 372 Rocket 3.9 00:12:41 10° NNW 00:17:51 88° WSW 00:22:10 15° SSE
GP-B 3.8 00:13:47 10° N 00:18:07 48° E 00:21:22 17° SSE
Cosmos 1953 Rocket 4.0 00:16:05 22° SSE 00:18:48 57° E 00:23:08 10° NNE
Cosmos-2242 2.9 00:15:16 10° NNW 00:19:32 74° W 00:21:58 25° S
STARLINK-1258 4.3 00:19:41 27° S 00:20:36 31° SE 00:23:55 10° E
STARLINK 1040 2.2 00:20:41 44° WSW 00:21:20 80° SSE 00:23:54 10° ENE
Cosmos 2221 4.2 00:18:13 10° N 00:22:08 31° ENE 00:26:02 10° SE
Cosmos 2150 Rocket 4.1 00:17:11 10° NNW 00:22:24 79° ENE 00:27:26 11° SSE
STARLINK-1444 1.9 00:20:23 10° WNW 00:22:32 84° NNE 00:24:46 10° ESE
Cosmos 2227 Rocket 3.5 00:18:13 10° NW 00:22:42 24° WSW 00:25:05 18° SW
STARLINK-1452 1.9 00:20:59 10° WNW 00:23:08 84° NNE 00:25:23 10° ESE
STARLINK-55 3.3 00:22:38 35° SSW 00:23:28 44° SSE 00:26:33 10° ENE
STARLINK-1292 4.2 00:22:49 28° S 00:23:50 33° SE 00:27:12 10° E
STARLINK-1450 1.8 00:22:17 10° WNW 00:24:22 86° NNE 00:26:33 10° ESE
STARLINK-1436 (VISORSAT) 1.8 00:22:17 10° WNW 00:24:24 86° N 00:26:37 10° ESE
STARLINK-1392 1.8 00:22:23 10° WNW 00:24:29 86° N 00:26:40 10° ESE
STARLINK-1398 1.8 00:22:22 10° WNW 00:24:29 86° N 00:26:43 10° ESE
STARLINK-1399 1.8 00:22:24 10° WNW 00:24:29 86° N 00:26:41 10° ESE
STARLINK-1415 1.8 00:22:25 10° WNW 00:24:30 86° N 00:26:42 10° ESE
STARLINK-1414 1.8 00:22:23 10° WNW 00:24:31 86° NNE 00:26:44 10° ESE
STARLINK-1394 1.8 00:22:25 10° WNW 00:24:31 86° NNE 00:26:42 10° ESE
STARLINK-1395 1.8 00:22:25 10° WNW 00:24:31 86° NNE 00:26:42 10° ESE
STARLINK-1393 1.8 00:22:25 10° WNW 00:24:31 86° NNE 00:26:42 10° ESE
STARLINK-1416 1.8 00:22:24 10° WNW 00:24:31 86° NNE 00:26:44 10° ESE
STARLINK-1396 1.8 00:22:26 10° WNW 00:24:32 86° NNE 00:26:43 10° ESE
STARLINK-1397 1.8 00:22:26 10° WNW 00:24:32 86° NNE 00:26:43 10° ESE
STARLINK-1401 1.8 00:22:26 10° WNW 00:24:32 86° NNE 00:26:43 10° ESE
STARLINK-1408 1.8 00:22:25 10° WNW 00:24:32 86° NNE 00:26:46 10° ESE
STARLINK-1404 1.8 00:22:27 10° WNW 00:24:32 86° NNE 00:26:44 10° ESE
STARLINK-1419 1.8 00:22:25 10° WNW 00:24:33 86° NNE 00:26:46 10° ESE
STARLINK-1453 1.8 00:22:28 10° WNW 00:24:33 86° NNE 00:26:44 10° ESE
STARLINK-1402 1.8 00:22:29 10° WNW 00:24:34 86° N 00:26:46 10° ESE
STARLINK-1417 1.8 00:22:29 10° WNW 00:24:34 86° N 00:26:46 10° ESE
STARLINK-1413 1.8 00:22:30 10° WNW 00:24:34 86° N 00:26:47 10° ESE
STARLINK-1420 1.8 00:22:27 10° WNW 00:24:35 86° N 00:26:49 10° ESE
STARLINK-1406 1.8 00:22:30 10° WNW 00:24:35 86° N 00:26:47 10° ESE
Resurs 1-4 Rocket 3.1 00:19:36 10° NNE 00:24:36 40° E 00:28:43 14° SSE
STARLINK-1422 1.8 00:22:29 10° WNW 00:24:37 86° NNE 00:26:50 10° ESE
STARLINK-1460 1.8 00:22:29 10° WNW 00:24:37 86° NNE 00:26:50 10° ESE
STARLINK-1458 1.8 00:22:29 10° WNW 00:24:37 86° NNE 00:26:51 10° ESE
STARLINK-1440 1.8 00:22:32 10° WNW 00:24:37 86° NNE 00:26:49 10° ESE
STARLINK-1445 1.8 00:22:32 10° WNW 00:24:38 86° NNE 00:26:49 10° ESE
STARLINK-1443 1.8 00:22:34 10° WNW 00:24:39 86° NNE 00:26:50 10° ESE
STARLINK-1454 1.8 00:22:34 10° WNW 00:24:39 86° NNE 00:26:50 10° ESE
STARLINK-1437 1.8 00:22:32 10° WNW 00:24:39 86° NNE 00:26:53 10° ESE
STARLINK-1451 1.8 00:22:35 10° WNW 00:24:40 86° N 00:26:52 10° ESE
STARLINK-1457 1.8 00:22:34 10° WNW 00:24:40 86° NNE 00:26:51 10° ESE
STARLINK-1446 1.8 00:22:33 10° WNW 00:24:40 86° N 00:26:55 10° ESE
STARLINK-1456 1.8 00:22:35 10° WNW 00:24:40 86° NNE 00:26:52 10° ESE
STARLINK-1338 4.0 00:20:46 10° W 00:24:41 63° N 00:28:37 10° E
STARLINK-1442 1.8 00:22:36 10° WNW 00:24:42 86° NNE 00:26:53 10° ESE
STARLINK-1447 1.8 00:22:36 10° WNW 00:24:44 86° NNE 00:26:57 10° ESE
STARLINK-1400 1.8 00:22:39 10° WNW 00:24:44 86° N 00:26:56 10° ESE
STARLINK-1410 1.8 00:22:39 10° WNW 00:24:44 86° N 00:26:56 10° ESE
STARLINK-1455 1.8 00:22:36 10° WNW 00:24:44 86° NNE 00:26:58 10° ESE
STARLINK-1405 1.8 00:22:38 10° WNW 00:24:44 86° NNE 00:26:55 10° ESE
STARLINK-1421 1.8 00:22:38 10° WNW 00:24:44 86° NNE 00:26:55 10° ESE
STARLINK-1407 1.8 00:22:40 10° WNW 00:24:44 86° N 00:26:57 10° ESE
STARLINK-1423 1.8 00:22:37 10° WNW 00:24:44 86° NNE 00:26:58 10° ESE
STARLINK-1441 1.8 00:22:37 10° WNW 00:24:45 86° NNE 00:26:58 10° ESE
STARLINK-1439 1.8 00:22:40 10° WNW 00:24:45 86° N 00:26:57 10° ESE
STARLINK-1449 1.8 00:22:37 10° WNW 00:24:45 86° N 00:27:00 10° ESE
STARLINK-1448 1.8 00:22:38 10° WNW 00:24:45 86° N 00:27:00 10° ESE
STARLINK-1409 1.8 00:22:40 10° WNW 00:24:45 86° N 00:26:57 10° ESE
STARLINK-1351 1.8 00:22:41 10° WNW 00:24:46 86° N 00:26:58 10° ESE
STARLINK-1370 1.8 00:22:41 10° WNW 00:24:46 86° N 00:26:58 10° ESE
STARLINK-1418 1.8 00:22:42 10° WNW 00:24:46 86° N 00:26:59 10° ESE
STARLINK-1434 1.8 00:22:42 10° WNW 00:24:47 86° N 00:26:59 10° ESE
STARLINK-1403 1.8 00:22:43 10° WNW 00:24:47 86° N 00:27:00 10° ESE
STARLINK-1433 1.8 00:22:44 10° WNW 00:24:49 86° NNE 00:27:01 10° ESE
STARLINK-1411 1.8 00:22:45 10° WNW 00:24:50 86° NNE 00:27:02 10° ESE
STARLINK-1438 1.8 00:22:45 10° WNW 00:24:51 86° NNE 00:27:02 10° ESE
STARLINK-1412 1.8 00:22:45 10° WNW 00:24:53 86° NNE 00:27:07 10° ESE
STARLINK-1301 4.1 00:25:24 27° S 00:26:41 36° SE 00:30:13 10° ENE
Cosmos 2227 4.4 00:21:42 10° NNW 00:27:30 79° ENE 00:33:16 10° SSE
STARLINK-1283 4.1 00:27:36 26° SSW 00:29:19 40° SSE 00:33:10 10° ENE
Cosmos 1814 Rocket 4.1 00:26:04 22° SSW 00:29:32 76° ESE 00:34:51 10° NNE
STARLINK-1289 4.1 00:29:04 27° S 00:30:19 36° SE 00:33:47 10° E
IRAS Rocket 4.3 00:26:35 19° S 00:30:32 63° WSW 00:36:03 10° NNW
STARLINK-29 3.0 00:29:36 10° WNW 00:32:48 77° NNE 00:36:00 10° ESE
STARLINK-1371 4.0 00:28:54 10° W 00:32:50 63° N 00:36:47 10° E
STARLINK-1303 4.0 00:32:14 27° SSW 00:33:37 37° SSE 00:37:06 10° ENE
STARLINK-28 3.0 00:33:31 30° SW 00:34:50 56° SSE 00:37:59 10° ENE
STARLINK-26 3.3 00:33:53 28° SW 00:35:27 54° SSE 00:38:49 10° ENE
STARLINK-1312 3.9 00:35:25 26° SSW 00:36:55 39° SSE 00:40:25 10° ENE
STARLINK-1341 4.0 00:33:01 10° W 00:36:57 63° N 00:40:53 10° E
Cosmos 1125 Rocket 3.8 00:33:54 10° NNW 00:39:07 70° ENE 00:44:19 10° SSE
UNK 3.8 00:36:35 13° SSE 00:40:40 78° ENE 00:45:15 10° NNW
STARLINK-1374 4.0 00:37:07 10° W 00:41:04 63° N 00:45:00 10° E
SL-16 R/B 3.6 00:36:40 12° SSE 00:41:05 29° ESE 00:45:55 10° NE
Cosmos 841 Rocket 3.5 00:37:44 20° SSW 00:41:21 78° WNW 00:46:35 10° NNE
GEOS 3 Rocket 3.7 00:37:34 10° SE 00:42:47 82° NE 00:48:08 10° NW
Helios 1B rocket 3.7 00:39:12 10° N 00:42:53 32° WNW 00:45:37 16° WSW
Cosmos 1570 Rocket 4.2 00:39:09 19° SW 00:42:55 69° WNW 00:48:12 10° NNE
STARLINK-1339 4.0 00:41:16 10° W 00:45:13 63° N 00:49:09 10° E
CZ-4C R/B 3.6 00:42:55 16° SSE 00:46:22 82° WSW 00:50:50 10° NNW
Cosmos 1315 Rocket 3.6 00:42:39 10° N 00:46:29 48° ENE 00:50:18 10° SSE
STARLINK-80 3.7 00:45:27 24° SSW 00:47:26 48° SSE 00:51:07 10° ENE
BREEZE M DEB (TANK) 4.4 00:49:07 16° SSE 00:49:07 16° SSE 00:50:44 10° SSE
Cosmos 2298 Rocket 4.1 00:43:32 10° NNW 00:48:47 62° WSW 00:53:22 14° S
STARLINK-1377 4.0 00:45:26 10° W 00:49:22 63° N 00:53:19 10° E
STARLINK-33 2.9 00:47:58 25° SW 00:49:33 62° SSE 00:52:39 10° ENE
CZ-4C R/B 2.7 00:44:45 11° WSW 00:49:45 58° NW 00:56:03 10° NE
Cosmos 1763 Rocket 4.4 00:45:56 14° WSW 00:49:57 40° WNW 00:54:45 10° NNE
STARLINK-1320 3.5 00:49:11 10° WNW 00:52:17 59° N 00:55:23 10° E
CZ-2D R/B 2.4 00:47:05 10° NNE 00:52:18 63° ESE 00:56:32 15° S
STARLINK-1322 3.4 00:49:32 10° WNW 00:52:38 60° N 00:55:44 10° E
STARLINK-1324 3.4 00:49:52 10° WNW 00:52:58 60° N 00:56:03 10° E
STARLINK-1294 3.4 00:50:08 10° WNW 00:53:15 60° N 00:56:22 10° E
STARLINK-1353 4.0 00:49:35 10° W 00:53:32 64° N 00:57:28 10° E
STARLINK-1261 3.4 00:50:32 10° WNW 00:53:38 60° N 00:56:44 10° E
STARLINK-1325 3.4 00:50:52 10° WNW 00:53:59 60° N 00:57:05 10° E
STARLINK-1333 3.4 00:51:14 10° WNW 00:54:20 60° N 00:57:26 10° E
STARLINK-1334 3.4 00:51:34 10° WNW 00:54:39 60° N 00:57:45 10° E
Cosmos 1825 Rocket 4.1 00:51:55 19° SW 00:54:41 45° WNW 00:58:54 10° N
Cosmos 2184 Rocket 4.1 00:49:34 15° S 00:54:46 76° E 01:00:57 10° NNE
STARLINK-1326 3.4 00:51:54 10° WNW 00:55:00 60° N 00:58:06 10° E
STARLINK-1323 3.4 00:52:14 10° WNW 00:55:20 60° N 00:58:25 10° E
STARLINK-1349 3.4 00:52:33 10° WNW 00:55:39 60° N 00:58:45 10° E
STARLINK-1336 3.4 00:52:54 10° WNW 00:56:00 60° N 00:59:05 10° E
STARLINK-1331 3.4 00:53:14 10° WNW 00:56:21 61° N 00:59:27 10° E
STARLINK-1344 3.4 00:53:34 10° WNW 00:56:40 61° N 00:59:46 10° E
STARLINK-1343 3.4 00:53:55 10° WNW 00:57:02 61° N 01:00:08 10° E
STARLINK-1346 3.4 00:54:13 10° WNW 00:57:21 61° N 01:00:30 10° E
STARLINK-1328 3.4 00:54:37 10° WNW 00:57:43 61° N 01:00:49 10° E
STARLINK-1375 4.0 00:53:47 10° WNW 00:57:43 64° N 01:01:40 10° E
STARLINK-1354 3.4 00:54:56 10° WNW 00:58:03 61° N 01:01:08 10° E
STARLINK-1347 3.4 00:55:15 10° WNW 00:58:21 61° N 01:01:28 10° E
STARLINK-1357 3.4 00:55:37 10° WNW 00:58:44 61° N 01:01:50 10° E
STARLINK-1335 3.4 00:55:57 10° WNW 00:59:03 61° N 01:02:10 10° E
STARLINK-1327 3.4 00:56:17 10° WNW 00:59:24 61° N 01:02:30 10° E
STARLINK-1340 3.4 00:56:38 10° WNW 00:59:45 62° N 01:02:51 10° E
STARLINK-1356 3.4 00:56:58 10° WNW 01:00:05 62° N 01:03:11 10° E
STARLINK-1345 3.4 00:57:19 10° WNW 01:00:25 62° N 01:03:32 10° E
Cosmos 2208 Rocket 4.4 00:56:35 17° SW 01:00:39 60° WNW 01:05:59 10° NNE
STARLINK-1355 3.4 00:57:38 10° WNW 01:00:45 62° N 01:03:51 10° E
STARLINK-1321 3.4 00:57:58 10° WNW 01:01:04 62° N 01:04:10 10° E
STARLINK-1358 3.4 00:58:20 10° WNW 01:01:27 62° N 01:04:33 10° E
STARLINK-1332 3.4 00:58:38 10° WNW 01:01:45 62° N 01:04:51 10° E
STARLINK-1350 3.9 00:57:56 10° WNW 01:01:53 65° N 01:05:50 10° E
STARLINK-1348 3.4 00:58:59 10° WNW 01:02:05 62° N 01:05:11 10° E
STARLINK-1330 3.4 00:59:20 10° WNW 01:02:27 62° N 01:05:33 10° E
Lacrosse 4 Rocket 3.4 01:00:49 10° W 01:02:34 12° WSW 01:03:15 12° WSW
STARLINK-1363 3.4 00:59:39 10° WNW 01:02:45 63° N 01:05:51 10° E
STARLINK-1297 3.4 01:00:39 21° SW 01:02:50 53° SSE 01:06:19 10° ENE
STARLINK-1337 3.4 01:00:01 10° WNW 01:03:07 63° N 01:06:13 10° E
STARLINK-66 2.8 01:01:11 18° WSW 01:03:27 76° SSE 01:06:40 10° ENE
STARLINK-1342 3.4 01:00:21 10° WNW 01:03:28 63° N 01:06:35 10° E
STARLINK-1364 3.3 01:00:42 10° WNW 01:03:48 63° N 01:06:55 10° E
STARLINK-1376 3.3 01:01:02 10° WNW 01:04:08 63° N 01:07:15 10° E
STARLINK-1360 3.3 01:01:22 10° WNW 01:04:28 63° N 01:07:35 10° E
NOSS 2-1 (E) 4.5 01:02:28 15° S 01:04:29 26° ESE 01:07:35 10° ENE
STARLINK-1361 3.3 01:01:43 10° WNW 01:04:49 63° N 01:07:56 10° E
Cosmos 2360 Rocket 4.1 01:00:51 10° SSE 01:04:54 21° E 01:08:58 10° NE
STARLINK-1367 3.3 01:02:00 10° WNW 01:05:08 64° N 01:08:17 10° E
STARLINK-1366 3.3 01:02:23 10° WNW 01:05:29 63° N 01:08:36 10° E
STARLINK-1268 2.9 01:04:05 21° SW 01:05:54 58° SSE 01:08:56 10° ENE
STARLINK-1352 3.9 01:02:10 10° WNW 01:06:07 65° N 01:10:04 10° E
STARLINK-52 2.8 01:05:02 10° WNW 01:08:16 80° SSW 01:11:27 10° ESE
STARLINK-58 3.3 01:07:07 21° SW 01:08:53 47° SSE 01:11:58 10° ENE
STARLINK-1316 2.9 01:07:38 20° SW 01:09:37 62° SSE 01:12:43 10° ENE
STARLINK-1368 3.9 01:06:24 10° WNW 01:10:22 66° N 01:14:19 10° E
STARLINK-1257 2.9 01:08:29 19° SW 01:10:30 62° SSE 01:13:37 10° ENE
STARLINK-1256 2.9 01:09:23 19° SW 01:11:26 63° SSE 01:14:31 10° ENE
Cosmos 1980 Rocket 2.4 01:07:19 15° SW 01:11:58 64° WNW 01:17:38 10° NNE
STARLINK-1213 2.9 01:10:16 19° SW 01:12:21 64° SSE 01:15:27 10° ENE
STARLINK-1263 2.9 01:11:07 18° SW 01:13:14 65° SSE 01:16:20 10° ENE
STARLINK-1259 2.9 01:12:00 18° SW 01:14:09 66° SSE 01:17:16 10° ENE
STARLINK-1265 2.9 01:12:24 18° SW 01:14:35 66° SSE 01:17:43 10° ENE
STARLINK-1369 3.9 01:10:39 10° WNW 01:14:37 67° N 01:18:34 10° E
STARLINK-75 2.9 01:12:04 15° WSW 01:14:40 80° SSE 01:17:55 10° ENE
Cosmos 1455 4.4 01:13:15 10° WNW 01:14:58 13° W 01:16:34 10° WSW
STARLINK-1285 2.8 01:12:51 18° SW 01:15:02 66° SSE 01:18:09 10° ENE
Meteor 1-11 4.4 01:11:52 16° SSW 01:16:22 63° WNW 01:21:57 10° N
STARLINK-1296 2.8 01:14:36 17° WSW 01:16:50 68° SSE 01:19:58 10° ENE
USA 215 4.4 01:13:42 14° SSW 01:17:26 21° SW 01:22:16 10° WNW
STARLINK-1260 2.8 01:15:26 17° WSW 01:17:43 69° SSE 01:20:49 10° ENE
STARLINK-1317 3.4 01:15:01 14° WSW 01:18:12 70° SSE 01:22:03 10° ENE
STARLINK-1307 3.3 01:15:22 15° SW 01:18:15 66° SSE 01:21:54 10° ENE
SL-08 R/B 4.2 01:14:02 10° SE 01:18:28 48° ENE 01:22:55 10° N
CRYOSAT 2 4.4 01:13:36 10° N 01:18:32 85° E 01:23:12 11° S
STARLINK-1318 2.8 01:16:19 16° WSW 01:18:38 70° SSE 01:21:45 10° ENE
STARLINK-1372 3.9 01:14:54 10° WNW 01:18:52 68° N 01:22:50 10° E
STARLINK-1275 2.8 01:17:12 16° WSW 01:19:33 71° SSE 01:22:40 10° ENE
STARLINK-1309 2.8 01:18:04 16° WSW 01:20:27 71° SSE 01:23:34 10° ENE
STARLINK-1282 2.8 01:18:56 16° WSW 01:21:21 72° SSE 01:24:28 10° ENE
SL-4 R/B 2.6 01:16:45 10° WNW 01:21:23 47° SSW 01:25:51 10° SE
STARLINK-1290 3.3 01:18:35 14° WSW 01:21:36 68° SSE 01:25:15 10° ENE
STARLINK-1313 2.8 01:19:53 14° WSW 01:22:27 79° SSE 01:25:35 10° ENE
STARLINK-1272 3.2 01:19:57 14° WSW 01:22:52 71° SSE 01:26:25 10° ENE
STARLINK-22 2.9 01:20:24 14° WSW 01:23:04 77° SSE 01:26:17 10° ENE
STARLINK-1378 3.8 01:19:08 10° WNW 01:23:07 70° N 01:27:05 10° E
BREEZE-M DEB (TANK) 2.3 01:22:09 21° SW 01:23:09 38° SSE 01:26:02 10° E
FALCON 9 DEB 3.1 01:19:55 10° WNW 01:23:22 87° SSW 01:26:51 10° ESE
STARLINK-1279 2.8 01:20:47 14° WSW 01:23:23 80° SSE 01:26:31 10° ENE
STARLINK-1298 2.8 01:21:30 15° WSW 01:24:01 75° SSE 01:27:09 10° ENE
STARLINK-1293 2.8 01:22:22 14° WSW 01:24:55 75° SSE 01:28:03 10° ENE
STARLINK-1255 2.8 01:24:08 14° WSW 01:26:44 77° SSE 01:29:53 10° ENE
Cosmos 2263 Rocket 2.5 01:21:41 10° NW 01:27:02 47° WSW 01:32:20 10° S
STARLINK-1379 3.8 01:23:26 10° WNW 01:27:25 71° N 01:31:24 10° E
Cosmos 540 Rocket 4.4 01:23:50 11° WSW 01:28:21 38° NW 01:33:08 10° NNE
Cosmos 2154 Rocket 4.1 01:22:43 10° S 01:28:53 86° E 01:35:09 10° N
SL-16 R/B 2.9 01:24:14 11° S 01:29:51 45° W 01:35:48 10° NNW
STARLINK-1329 3.8 01:26:47 10° WNW 01:30:46 72° NNE 01:34:45 10° E
H-2A R/B 3.9 01:27:49 10° SE 01:31:51 35° ENE 01:35:58 10° N
Meteor 2-17 Rocket 4.5 01:26:23 12° SSW 01:32:10 80° W 01:38:19 10° N
Cosmos 1076 Rocket 3.9 01:28:14 10° S 01:32:33 62° E 01:36:53 10° NNE
STARLINK-1362 3.8 01:31:06 10° WNW 01:35:07 74° NNE 01:39:08 10° E
ADEOS II 2.5 01:30:27 10° NNE 01:35:41 61° ESE 01:40:53 10° S
STARLINK-1291 3.2 01:32:11 11° WSW 01:35:46 81° SSE 01:39:28 10° ENE
STARLINK-43 3.7 01:32:13 10° W 01:35:53 65° N 01:39:33 10° ENE
Cosmos 1869 3.4 01:32:42 10° NNW 01:36:30 54° W 01:40:16 10° S
STARLINK-60 3.8 01:33:49 10° W 01:36:37 28° SW 01:39:25 10° SSE
NPP 3.8 01:31:27 10° N 01:36:49 69° WNW 01:41:55 11° SSW
STARLINK-1311 2.7 01:34:29 10° WSW 01:37:25 86° NNW 01:40:24 10° ENE
STARLINK-42 3.0 01:34:58 10° WSW 01:38:07 78° NNW 01:41:17 10° ENE
STARLINK-1029 3.0 01:35:36 14° SW 01:38:13 60° SSE 01:41:21 10° ENE
STARLINK-1264 3.3 01:35:14 10° WSW 01:38:56 84° SSE 01:42:38 10° ENE
STARLINK-1273 4.5 01:36:09 13° SSW 01:39:23 36° SE 01:43:12 10° ENE
STARLINK-1373 3.7 01:35:29 10° WNW 01:39:29 76° NNE 01:43:29 10° E
CZ-4B R/B 3.7 01:35:03 10° NNE 01:40:18 75° WNW 01:45:27 11° SSW
IDEFIX/ARIANE 42P 4.5 01:36:26 10° NE 01:40:49 26° E 01:45:09 10° SSE
Cosmos 1892 2.8 01:37:04 10° S 01:40:51 75° E 01:44:39 10° NNE
STARLINK-1274 3.2 01:38:11 10° WSW 01:41:44 86° SSE 01:45:18 10° ENE
STARLINK-1267 3.3 01:38:26 10° WSW 01:42:07 86° SSE 01:45:50 10° ENE
IRIDIUM 106 4.4 01:37:32 10° S 01:42:45 87° E 01:48:00 10° N
STARLINK-34 2.8 01:40:11 11° WSW 01:43:04 77° SSE 01:46:09 10° ENE
ERS-2 3.3 01:40:19 10° SE 01:43:50 46° ENE 01:47:23 10° N
STARLINK-1390 3.7 01:39:51 10° WNW 01:43:52 78° NNE 01:47:53 10° ESE
STARLINK-1288 4.4 01:40:56 13° SSW 01:44:20 39° SE 01:48:12 10° ENE
STARLINK-41 3.0 01:41:30 10° WSW 01:44:36 76° NNW 01:47:42 10° ENE
IRS-1D 3.6 01:40:01 10° NNE 01:45:21 89° ESE 01:50:32 10° SSW
STARLINK-62 2.8 01:42:25 11° WSW 01:45:27 79° SSE 01:48:35 10° ENE
STARLINK-1365 3.7 01:43:54 10° WNW 01:47:57 81° NNE 01:52:00 10° ESE
STARLINK-1207 3.3 01:44:51 10° WSW 01:48:34 89° N 01:52:17 10° ENE
STARLINK-1308 4.3 01:45:44 12° SW 01:49:19 42° SSE 01:53:14 10° ENE
Cosmos 2322 Rocket 2.3 01:44:19 10° SSW 01:49:55 75° ESE 01:55:33 10° NNE
BREEZE-M R/B 2.2 01:47:01 10° W 01:51:08 64° SSW 01:53:44 10° ESE
Nadezhda 3 Rocket 4.3 01:45:23 10° NNW 01:51:32 56° W 01:57:42 10° SSW
STARLINK-1266 3.3 01:48:05 10° WSW 01:51:48 87° NNW 01:55:32 10° ENE
In-Cosmos 22 Rocket 4.2 01:46:29 10° SSW 01:52:06 86° W 01:57:36 10° NNE
STARLINK-64 3.4 01:50:05 11° SW 01:53:30 58° SSE 01:57:02 10° ENE
ARIANE 5 R/B 3.1 01:48:49 10° NNE 01:53:46 54° E 01:58:39 10° S
STARLINK-1284 3.4 01:51:20 10° WSW 01:55:03 85° NNW 01:58:47 10° ENE
STARLINK 1040 3.3 01:52:53 10° WNW 01:55:23 49° N 01:57:54 10° ENE
STARLINK-1444 3.7 01:54:31 10° W 01:56:04 17° SW 01:57:40 10° S
STARLINK-1452 3.7 01:55:08 10° W 01:56:41 16° SW 01:58:16 10° S
STARLINK-61 4.4 01:53:22 11° SSW 01:56:50 35° SE 02:00:27 10° ENE
STARLINK-1450 3.8 01:56:26 10° WSW 01:57:52 15° SW 01:59:21 10° S
STARLINK-1436 (VISORSAT) 3.8 01:56:28 10° WSW 01:57:57 16° SW 01:59:29 10° S
STARLINK-1392 3.8 01:56:34 10° WSW 01:58:00 15° SW 01:59:28 10° S
STARLINK-1399 3.8 01:56:34 10° WSW 01:58:00 15° SW 01:59:29 10° S
STARLINK-1415 3.8 01:56:35 10° WSW 01:58:01 15° SW 01:59:29 10° S
STARLINK-1394 3.8 01:56:35 10° WSW 01:58:01 15° SW 01:59:30 10° S
STARLINK-1414 3.8 01:56:33 10° WSW 01:58:01 16° SW 01:59:33 10° S
STARLINK-1398 3.8 01:56:32 10° WSW 01:58:01 16° SW 01:59:34 10° S
STARLINK-1395 3.8 01:56:36 10° WSW 01:58:01 15° SW 01:59:30 10° S
STARLINK-1393 3.8 01:56:36 10° WSW 01:58:02 15° SW 01:59:30 10° S
STARLINK-1416 3.8 01:56:34 10° WSW 01:58:02 16° SW 01:59:34 10° S
STARLINK-1396 3.8 01:56:36 10° WSW 01:58:02 15° SW 01:59:31 10° S
STARLINK-1397 3.8 01:56:37 10° WSW 01:58:02 15° SW 01:59:31 10° S
STARLINK-1401 3.8 01:56:37 10° WSW 01:58:02 15° SW 01:59:31 10° S
STARLINK-1404 3.8 01:56:38 10° WSW 01:58:03 15° SW 01:59:32 10° S
STARLINK-1408 3.8 01:56:35 10° WSW 01:58:03 16° SW 01:59:35 10° S
STARLINK-1453 3.8 01:56:38 10° WSW 01:58:03 15° SW 01:59:32 10° S
STARLINK-1419 3.8 01:56:36 10° WSW 01:58:04 16° SW 01:59:36 10° S
STARLINK-1402 3.8 01:56:39 10° WSW 01:58:05 15° SW 01:59:34 10° S
STARLINK-1417 3.8 01:56:39 10° WSW 01:58:05 15° SW 01:59:34 10° S
STARLINK-1413 3.8 01:56:41 10° WSW 01:58:07 15° SW 01:59:35 10° S
STARLINK-1406 3.8 01:56:40 10° WSW 01:58:07 15° SW 01:59:35 10° S
STARLINK-1420 3.8 01:56:38 10° WSW 01:58:08 16° SW 01:59:39 10° S
STARLINK-1440 3.8 01:56:42 10° WSW 01:58:08 15° SW 01:59:37 10° S
STARLINK-1422 3.8 01:56:40 10° WSW 01:58:09 16° SW 01:59:40 10° S
STARLINK-1445 3.8 01:56:43 10° WSW 01:58:09 15° SW 01:59:37 10° S
STARLINK-1460 3.8 01:56:40 10° WSW 01:58:09 16° SW 01:59:40 10° S
STARLINK-1458 3.8 01:56:40 10° WSW 01:58:10 16° SW 01:59:41 10° S
STARLINK-1443 3.8 01:56:44 10° WSW 01:58:10 15° SW 01:59:39 10° S
STARLINK-1454 3.8 01:56:44 10° WSW 01:58:10 15° SW 01:59:39 10° S
STARLINK-1457 3.8 01:56:45 10° WSW 01:58:11 15° SW 01:59:39 10° S
STARLINK-1456 3.8 01:56:45 10° WSW 01:58:11 15° SW 01:59:40 10° S
STARLINK-1451 3.8 01:56:45 10° WSW 01:58:12 15° SW 01:59:40 10° S
STARLINK-1437 3.8 01:56:44 10° WSW 01:58:13 16° SW 01:59:44 10° S
STARLINK-1442 3.8 01:56:47 10° WSW 01:58:13 15° SW 01:59:42 10° S
STARLINK-1446 3.8 01:56:44 10° WSW 01:58:13 16° SW 01:59:46 10° S
STARLINK-1405 3.8 01:56:49 10° WSW 01:58:15 15° SW 01:59:43 10° S
STARLINK-1421 3.8 01:56:50 10° WSW 01:58:15 15° SW 01:59:43 10° S
STARLINK-1400 3.8 01:56:50 10° WSW 01:58:16 15° SW 01:59:44 10° S
STARLINK-1410 3.8 01:56:50 10° WSW 01:58:16 15° SW 01:59:44 10° S
STARLINK-1423 3.8 01:56:47 10° WSW 01:58:16 16° SW 01:59:47 10° S
STARLINK-1447 3.8 01:56:47 10° WSW 01:58:16 16° SW 01:59:48 10° S
STARLINK-1407 3.8 01:56:50 10° WSW 01:58:16 15° SW 01:59:45 10° S
STARLINK-1455 3.8 01:56:47 10° WSW 01:58:16 16° SW 01:59:48 10° S
STARLINK-1439 3.8 01:56:51 10° WSW 01:58:17 15° SW 01:59:45 10° S
STARLINK-1409 3.8 01:56:51 10° WSW 01:58:17 15° SW 01:59:45 10° S
STARLINK-1441 3.8 01:56:48 10° WSW 01:58:17 16° SW 01:59:49 10° S
STARLINK-1351 3.8 01:56:52 10° WSW 01:58:18 15° SW 01:59:46 10° S
STARLINK-1370 3.8 01:56:52 10° WSW 01:58:18 15° SW 01:59:46 10° S
STARLINK-1418 3.8 01:56:53 10° WSW 01:58:18 15° SW 01:59:47 10° S
STARLINK-1434 3.8 01:56:53 10° WSW 01:58:18 15° SW 01:59:47 10° S
STARLINK-1448 3.8 01:56:49 10° WSW 01:58:19 16° SW 01:59:51 10° S
STARLINK-1258 3.4 01:54:36 10° WSW 01:58:19 83° NNW 02:02:03 10° ENE
STARLINK-1449 3.8 01:56:49 10° WSW 01:58:19 16° SW 01:59:51 10° S
STARLINK-1403 3.8 01:56:54 10° WSW 01:58:20 15° SW 01:59:48 10° S
STARLINK-1433 3.8 01:56:55 10° WSW 01:58:20 15° SW 01:59:49 10° S
STARLINK-1411 3.8 01:56:56 10° WSW 01:58:22 15° SW 01:59:50 10° S
STARLINK-1438 3.8 01:56:57 10° WSW 01:58:22 15° SW 01:59:50 10° S
STARLINK-1412 3.8 01:56:57 10° WSW 01:58:27 16° SW 01:59:59 10° S
STARLINK-1278 4.0 01:54:46 10° SW 01:58:53 53° SSE 02:03:02 10° ENE
Cosmos 1697 Rocket 4.5 01:54:38 10° W 01:59:10 24° NW 02:03:43 10° NNE
STARLINK-1304 4.1 01:55:17 10° SW 01:59:12 47° SSE 02:03:12 10° ENE
STARLINK-55 3.3 01:56:20 10° W 01:59:31 64° N 02:02:43 10° ENE
Cosmos 2221 3.5 01:55:48 10° NNW 01:59:41 32° W 02:03:34 10° SSW
NOSS 2-1 (C) 3.0 01:56:56 10° SW 02:00:17 84° NW 02:04:03 10° NE
STARLINK-1280 4.0 01:56:34 10° SW 02:00:43 54° SSE 02:04:53 10° ENE
USA 229 DEB 4.3 01:54:08 10° NW 02:00:47 39° WSW 02:07:42 10° S
USA 229 4.3 01:54:15 10° NW 02:00:54 40° WSW 02:07:49 10° S
STARLINK-1292 3.4 01:57:51 10° WSW 02:01:35 81° NNW 02:05:20 10° ENE
STARLINK-1338 3.5 01:59:42 10° WNW 02:03:40 89° NNE 02:07:37 10° ESE
Resurs 1-4 Rocket 3.0 01:59:33 10° N 02:04:24 37° WNW 02:09:15 10° SW
STARLINK-1301 3.5 02:01:02 10° WSW 02:04:51 78° NNW 02:08:41 10° ENE
NOSS 2-1 (D) 3.1 02:01:46 10° SW 02:05:09 76° NW 02:08:58 10° NE
BREEZE-M DEB (TANK) 1.4 02:05:29 10° W 02:07:41 47° SSW 02:10:43 10° ESE
STARLINK-1289 3.5 02:04:24 10° WSW 02:08:08 77° NNW 02:11:53 10° ENE
STARLINK-1283 3.8 02:04:26 10° W 02:08:32 77° NNW 02:12:38 10° ENE
STARLINK-29 3.7 02:05:54 10° W 02:08:45 30° SW 02:11:34 10° SSE
NOSS 3-1 (A) 4.3 02:02:51 10° NW 02:10:00 49° WSW 02:18:09 10° SSE
STARLINK-28 3.5 02:07:47 10° W 02:10:58 60° N 02:14:09 10° ENE
STARLINK-1303 3.5 02:07:43 10° W 02:11:27 76° NNW 02:15:12 10° ENE
STARLINK-1371 3.5 02:07:51 10° WNW 02:11:49 85° SSW 02:15:46 10° ESE
STARLINK-26 3.6 02:08:59 10° W 02:12:24 63° N 02:15:50 10° ENE
STARLINK-1286 3.9 02:10:07 10° SW 02:14:13 58° SSE 02:18:19 10° ENE
STARLINK-1312 3.5 02:11:03 10° W 02:14:47 74° NNW 02:18:32 10° ENE
STARLINK-1341 3.5 02:11:58 10° WNW 02:15:56 83° SSW 02:19:53 10° ESE
